STARLINK-33725, 63717

Orbit data source: Space-Track

STARLINK-33725, 63717 is a payload satellite owned by SpaceX/Seattle (US) in LEO that was launched on Mon, 28 Apr 2025 UTC via an FALCON 9 launch vehicle from the Air Force Western Test Range (AFWTR). Payload-class satellites include a variety of spacecraft equipped with specific instruments for various scientific and technological missions. These include communications satellites like Starlink; space stations such as the ISS; scientific satellites like the Hubble; Earth observation satellites from companies like Planet Labs, Umbra, and HawkEye 360; GPS; miniature CubeSats for education and research; and military/defense satellites.

Loading next visibility...
Identifier
63717, 2025-087W
Orbit
LEO
Country
Flag of USUS
Related business
Manufacturer
SpaceX/Seattle
Mission
Operational Commercial Communications
Bus & Motor
STARLINK V2MO, Unknown motor
Mass
575 kg wet, ~530 kg dry
Launch date (UTC)
2025-04-28 (1 year ago)
Launch vehicle
FALCON 9
Launch site
Air Force Western Test Range (AFWTR)
Object type
Payload
Rocket body
Debris
Shape & HBR
Box + 2 Pan, 17.7 m
Radar Cross Section
36.964 m², Large (>1 m²)

Expand to show TLE details & history
Last TLE update: 14 hours ago

TLE from 14 hours ago
0 STARLINK-33725
1 63717U 25087W   26171.25117087  .00019411  00000-0  66536-3 0  9999
2 63717  53.1578 103.0656 0001436  93.9443 266.1721 15.30221445 64903
Epoch: 2026-06-20T06:01Z
TLE epoch observation values (Epoch: 2026-06-20T06:01:41.163Z)
Latitude
-0.00008°
Longitude
104.17555°
Altitude
476.116 km
Speed
7.629 km/s
True Right ascension
06h 52m 15s
True Declination
0° 00' 00"
Sunlit
Object was in daylight at epoch
Visualization orbit readout
Latitude
Unknown
Longitude
Unknown
Altitude
Unknown
Speed
Unknown
Apparent Right ascension
Unknown
Apparent Declination
Unknown
Sunlit
N/A
Visualization observer readout
Local Sidereal Time
07:24:20
Azimuth
Unknown
Elevation
Unknown
Doppler factor
Unknown
Orbital elements
Apogee altitude
476.392 km
Perigee altitude
474.424 km
Semi-major axis
6,853.545 km
Eccentricity
0.00014
Inclination
53.1578°
RAAN
103.0656°
Arg. of periapsis
93.9443°
True anomaly
266.15568°
Mean anomaly
266.1721°
Eccentric anomaly
266.16389°
Mean motion
3.82534 °/min
Orbital period
94.11 mins
BSTAR
0.00066536
Loading maneuver chart data...
Computing Atmospheric mass density...
Loading historical data...
Loading historical data...
Loading historical data...
Loading historical data...
Loading historical data...
Loading historical data...
Loading historical data...

Documentation

Showing up to 5 results
|